sat.trackr.live / text

‹ back to catalog

STARLINK-30843

NORAD 58241 · 2023-171M

PAYLOAD ACTIVE UNKNOWN

§ Identity

Operator
Country
US
Launch date
2023-11-08
Launch site
AFETR
Launch vehicle
Mass (kg)
RCS (m²)

Purposes: comms

External: N2YO · Heavens-Above · Gunter

§ Orbital elements

Epoch: 2026-09-20T08:23:59.880768Z

Period
94.27 min
Inclination
43.0019°
Eccentricity
0.0001298
Mean motion
15.27580357 rev/d
Perigee alt
482.2 km
Apogee alt
483.9 km
Semi-major
6,861.2 km
B*
5.2308e-5
RAAN
266.0218°
Arg perigee
271.2850°
Mean anomaly
88.7853°
Rev number
15,952

§ Raw data

STARLINK-308431 58241U 23171M   26263.34999862  .00001178  00000+0  52308-4 0  99912 58241  43.0019 266.0218 0001298 271.2850  88.7853 15.27580357159523

JSON: /api/v1/satellites/58241 · /tle

For live sub-satellite position, see the globe view (requires WebGL).

§ Visibility from observer

Set your observer location to see the next 7 days of passes ≥ 10°. The values pass through the URL so the page stays shareable.

No JS? Fill the form by hand. The geolocation button needs JavaScript.